| time (UTC) | temp C | wind direction | speed KPH | gust KPH | rain 1hr cm | rain 24hr cm | rain mn cm | humidity % | barometer mb |
| 20260503180348 | 16 | 283 | 14.5 | 41.8 | 0.00 | 0.00 | 0.00 | 40 | |
| 20260503175847 | 16 | 288 | 20.9 | 48.3 | 0.00 | 0.00 | 0.00 | 38 | |
| 20260503175346 | 17 | 269 | 16.1 | 40.2 | 0.00 | 0.00 | 0.00 | 37 | |
| 20260503174906 | 17 | 267 | 17.7 | 53.1 | 0.00 | 0.00 | 0.00 | 39 | |
| 20260503174344 | 17 | 294 | 14.5 | 35.4 | 0.00 | 0.00 | 0.00 | 38 | |
| 20260503173843 | 17 | 287 | 22.5 | 61.2 | 0.00 | 0.00 | 0.00 | 38 | |
| 20260503173342 | 17 | 300 | 24.1 | 57.9 | 0.00 | 0.00 | 0.00 | 38 | |
| 20260503172840 | 16 | 270 | 20.9 | 43.5 | 0.00 | 0.00 | 0.00 | 39 | |
| 20260503172339 | 16 | 270 | 22.5 | 43.5 | 0.00 | 0.00 | 0.00 | 38 | |
| 20260503171838 | 16 | 269 | 22.5 | 59.5 | 0.00 | 0.00 | 0.00 | 39 | |
| 20260503171338 | 16 | 262 | 16.1 | 49.9 | 0.00 | 0.00 | 0.00 | 40 | |
| 20260503170858 | 15 | 282 | 24.1 | 57.9 | 0.00 | 0.00 | 0.00 | 39 | |
| 20260503170336 | 16 | 257 | 14.5 | 46.7 | 0.00 | 0.00 | 0.00 | 40 | |
| 20260503150813 | 14 | 288 | 25.7 | 54.7 | 0.00 | 0.00 | 0.00 | 39 | |
| 20260503150312 | 14 | 309 | 20.9 | 46.7 | 0.00 | 0.00 | 0.00 | 40 | |
| 20260503140300 | 13 | 287 | 24.1 | 54.7 | 0.00 | 0.00 | 0.00 | 43 | |
| 20260503131310 | 10 | 282 | 16.1 | 40.2 | 0.00 | 0.00 | 0.00 | 49 | |
| 20260503130748 | 10 | 284 | 12.9 | 32.2 | 0.00 | 0.00 | 0.00 | 50 | |
| 20260503130247 | 10 | 290 | 17.7 | 38.6 | 0.00 | 0.00 | 0.00 | 50 | |
| 20260503110724 | 5 | 266 | 9.7 | 25.7 | 0.00 | 0.00 | 0.00 | 58 | |
| 20260503110223 | 5 | 264 | 8.0 | 22.5 | 0.00 | 0.00 | 0.00 | 58 | |
| 20260503100211 | 2 | 277 | 1.6 | 8.0 | 0.00 | 0.00 | 0.00 | 65 | |
| 20260503090159 | 1 | 278 | 1.6 | 12.9 | 0.00 | 0.00 | 0.00 | 68 | |
| 20260503081149 | 2 | 295 | 1.6 | 14.5 | 0.00 | 0.00 | 0.00 | 69 | |
| 20260503080648 | 2 | 273 | 0.0 | 4.8 | 0.00 | 0.00 | 0.00 | 69 | |
| 20260503080147 | 1 | 275 | 0.0 | 8.0 | 0.00 | 0.00 | 0.00 | 70 | |
| 20260503072640 | 1 | 291 | 0.0 | 6.4 | 0.00 | 0.00 | 0.00 | 73 | |
| 20260503072139 | 1 | 280 | 1.6 | 9.7 | 0.00 | 0.00 | 0.00 | 72 | |
| 20260503071637 | 1 | 289 | 0.0 | 8.0 | 0.00 | 0.00 | 0.00 | 72 | |
| 20260503071137 | 1 | 286 | 1.6 | 9.7 | 0.00 | 0.00 | 0.00 | 72 | |
| 20260503070636 | 1 | 280 | 0.0 | 4.8 | 0.00 | 0.00 | 0.00 | 71 | |
| 20260503070134 | 1 | 282 | 0.0 | 6.4 | 0.00 | 0.00 | 0.00 | 72 | |
| 20260503060123 | 2 | 285 | 1.6 | 8.0 | 0.00 | 0.00 | 0.00 | 68 | |
| 20260503055121 | 2 | 262 | 1.6 | 9.7 | 0.00 | 0.00 | 0.00 | 67 | |
| 20260503054641 | 2 | 278 | 0.0 | 8.0 | 0.00 | 0.00 | 0.00 | 66 | |
| 20260503054118 | 3 | 280 | 0.0 | 8.0 | 0.00 | 0.00 | 0.00 | 66 | |
| 20260503053617 | 3 | 276 | 1.6 | 11.3 | 0.00 | 0.00 | 0.00 | 66 | |
| 20260503053116 | 3 | 280 | 3.2 | 19.3 | 0.00 | 0.00 | 0.00 | 66 | |
| 20260503052616 | 3 | 279 | 3.2 | 9.7 | 0.00 | 0.00 | 0.00 | 66 | |
| 20260503052135 | 3 | 287 | 0.0 | 11.3 | 0.00 | 0.00 | 0.00 | 66 | |
| 20260503051614 | 3 | 252 | 0.0 | 6.4 | 0.00 | 0.00 | 0.00 | 66 | |
| 20260503051134 | 3 | 279 | 1.6 | 12.9 | 0.00 | 0.00 | 0.00 | 65 | |
| 20260503050612 | 3 | 266 | 1.6 | 8.0 | 0.00 | 0.00 | 0.00 | 65 | |
| 20260503050110 | 3 | 284 | 1.6 | 11.3 | 0.00 | 0.00 | 0.00 | 65 | |
| 20260503045630 | 3 | 273 | 1.6 | 12.9 | 0.00 | 0.00 | 0.00 | 64 | |
| 20260503045108 | 3 | 281 | 1.6 | 6.4 | 0.00 | 0.00 | 0.00 | 65 | |
| 20260503044608 | 3 | 267 | 1.6 | 11.3 | 0.00 | 0.00 | 0.00 | 64 | |
| 20260503044106 | 3 | 272 | 1.6 | 16.1 | 0.00 | 0.00 | 0.00 | 65 | |
| 20260503043606 | 3 | 261 | 3.2 | 16.1 | 0.00 | 0.00 | 0.00 | 65 | |
| 20260503043105 | 3 | 271 | 1.6 | 11.3 | 0.00 | 0.00 | 0.00 | 65 | |
| 20260503042604 | 3 | 266 | 4.8 | 20.9 | 0.00 | 0.00 | 0.00 | 66 | |
| 20260503042103 | 3 | 258 | 1.6 | 9.7 | 0.00 | 0.00 | 0.00 | 66 | |
| 20260503041601 | 3 | 260 | 3.2 | 16.1 | 0.00 | 0.00 | 0.00 | 68 | |
| 20260503041100 | 3 | 263 | 3.2 | 14.5 | 0.00 | 0.00 | 0.00 | 69 | |
| 20260503040600 | 3 | 266 | 1.6 | 6.4 | 0.00 | 0.00 | 0.00 | 68 | |
| 20260503040059 | 3 | 260 | 1.6 | 11.3 | 0.00 | 0.00 | 0.00 | 68 | |
| 20260503035558 | 3 | 245 | 0.0 | 3.2 | 0.00 | 0.00 | 0.00 | 68 | |
| 20260503035056 | 3 | 249 | 1.6 | 9.7 | 0.00 | 0.00 | 0.00 | 69 | |
| 20260503034556 | 3 | 247 | 1.6 | 8.0 | 0.00 | 0.00 | 0.00 | 68 | |
| 20260503034054 | 3 | 255 | 1.6 | 11.3 | 0.00 | 0.00 | 0.00 | 68 | |
| 20260503033554 | 3 | 245 | 0.0 | 4.8 | 0.00 | 0.00 | 0.00 | 69 | |
| 20260503033052 | 3 | 245 | 0.0 | 1.6 | 0.00 | 0.00 | 0.00 | 68 | |
| 20260503032551 | 3 | 247 | 0.0 | 3.2 | 0.00 | 0.00 | 0.00 | 68 | |
| 20260503032050 | 3 | 251 | 0.0 | 4.8 | 0.00 | 0.00 | 0.00 | 67 | |
| 20260503031550 | 3 | 251 | 0.0 | 0.0 | 0.00 | 0.00 | 0.00 | 67 | |
| 20260503031048 | 3 | 251 | 0.0 | 3.2 | 0.00 | 0.00 | 0.00 | 66 | |
| 20260503030547 | 3 | 253 | 0.0 | 4.8 | 0.00 | 0.00 | 0.00 | 66 | |
| 20260503030046 | 3 | 252 | 0.0 | 1.6 | 0.00 | 0.00 | 0.00 | 66 | |
| 20260503025545 | 3 | 253 | 0.0 | 0.0 | 0.00 | 0.00 | 0.00 | 64 | |
| 20260503025044 | 4 | 253 | 0.0 | 0.0 | 0.00 | 0.00 | 0.00 | 64 | |
| 20260503024543 | 4 | 254 | 0.0 | 3.2 | 0.00 | 0.00 | 0.00 | 63 | |
| 20260503024042 | 4 | 257 | 0.0 | 4.8 | 0.00 | 0.00 | 0.00 | 62 | |
| 20260503023602 | 4 | 262 | 0.0 | 9.7 | 0.00 | 0.00 | 0.00 | 61 | |
| 20260503023041 | 4 | 236 | 0.0 | 6.4 | 0.00 | 0.00 | 0.00 | 62 | |
| 20260503022539 | 4 | 250 | 0.0 | 1.6 | 0.00 | 0.00 | 0.00 | 62 | |
| 20260503022038 | 4 | 246 | 0.0 | 0.0 | 0.00 | 0.00 | 0.00 | 61 | |
| 20260503021538 | 4 | 245 | 0.0 | 0.0 | 0.00 | 0.00 | 0.00 | 61 | |
| 20260503021057 | 4 | 249 | 0.0 | 4.8 | 0.00 | 0.00 | 0.00 | 63 | |
| 20260503020536 | 4 | 244 | 0.0 | 4.8 | 0.00 | 0.00 | 0.00 | 62 | |
| 20260503020034 | 4 | 244 | 0.0 | 0.0 | 0.00 | 0.00 | 0.00 | 61 | |
| 20260503015533 | 4 | 244 | 0.0 | 0.0 | 0.00 | 0.00 | 0.00 | 61 | |
| 20260503015032 | 4 | 247 | 0.0 | 0.0 | 0.00 | 0.00 | 0.00 | 61 | |
| 20260503014531 | 5 | 251 | 0.0 | 1.6 | 0.00 | 0.00 | 0.00 | 60 | |
| 20260503014030 | 5 | 252 | 0.0 | 0.0 | 0.00 | 0.00 | 0.00 | 59 | |
| 20260503013550 | 5 | 251 | 0.0 | 0.0 | 0.00 | 0.00 | 0.00 | 56 | |
| 20260503013028 | 5 | 251 | 0.0 | 0.0 | 0.00 | 0.00 | 0.00 | 56 | |
| 20260503012527 | 5 | 251 | 0.0 | 0.0 | 0.00 | 0.00 | 0.00 | 56 | |
| 20260503012026 | 5 | 252 | 0.0 | 4.8 | 0.00 | 0.00 | 0.00 | 55 | |
| 20260503011525 | 5 | 253 | 0.0 | 0.0 | 0.00 | 0.00 | 0.00 | 54 | |
| 20260503011024 | 6 | 252 | 0.0 | 0.0 | 0.00 | 0.00 | 0.00 | 53 | |
| 20260503010523 | 6 | 252 | 0.0 | 0.0 | 0.00 | 0.00 | 0.00 | 52 | |
| 20260503010022 | 6 | 252 | 0.0 | 0.0 | 0.00 | 0.00 | 0.00 | 51 | |
| 20260503005522 | 6 | 253 | 0.0 | 0.0 | 0.00 | 0.00 | 0.00 | 49 | |
| 20260503005020 | 6 | 256 | 0.0 | 3.2 | 0.00 | 0.00 | 0.00 | 49 | |
| 20260503004540 | 7 | 253 | 3.2 | 14.5 | 0.00 | 0.00 | 0.00 | 48 | |
| 20260503004017 | 7 | 278 | 4.8 | 12.9 | 0.00 | 0.00 | 0.00 | 48 | |
| 20260503003538 | 7 | 260 | 1.6 | 8.0 | 0.00 | 0.00 | 0.00 | 48 | |
| 20260503003016 | 7 | 292 | 1.6 | 6.4 | 0.00 | 0.00 | 0.00 | 47 | |
| 20260503002515 | 7 | 280 | 4.8 | 20.9 | 0.00 | 0.00 | 0.00 | 47 | |
| 20260503002015 | 7 | 273 | 3.2 | 14.5 | 0.00 | 0.00 | 0.00 | 47 | |
| 20260503001513 | 7 | 324 | 6.4 | 20.9 | 0.00 | 0.00 | 0.00 | 46 | |
| 20260503001012 | 7 | 311 | 4.8 | 17.7 | 0.00 | 0.00 | 0.00 | 47 | |
| 20260503000511 | 7 | 261 | 3.2 | 14.5 | 0.00 | 0.00 | 0.00 | 47 | |
| 20260503000010 | 7 | 290 | 4.8 | 19.3 | 0.00 | 0.00 | 0.00 | 47 | |
| 20260502235529 | 7 | 312 | 4.8 | 17.7 | 0.00 | 0.00 | 0.00 | 47 | |
| 20260502235008 | 7 | 345 | 1.6 | 8.0 | 0.00 | 0.00 | 0.00 | 47 | |
| 20260502234527 | 7 | 355 | 6.4 | 16.1 | 0.00 | 0.00 | 0.00 | 46 | |
| 20260502234006 | 7 | 8 | 8.0 | 16.1 | 0.00 | 0.00 | 0.00 | 46 | |
| 20260502233505 | 8 | 357 | 4.8 | 12.9 | 0.00 | 0.00 | 0.00 | 45 | |
| 20260502233004 | 8 | 343 | 9.7 | 25.7 | 0.00 | 0.00 | 0.00 | 45 | |
| 20260502232503 | 8 | 348 | 8.0 | 17.7 | 0.00 | 0.00 | 0.00 | 45 | |
| 20260502232023 | 8 | 311 | 6.4 | 14.5 | 0.00 | 0.00 | 0.00 | 45 | |
| 20260502231502 | 8 | 358 | 6.4 | 16.1 | 0.00 | 0.00 | 0.00 | 47 | |
| 20260502230959 | 8 | 1 | 11.3 | 24.1 | 0.00 | 0.00 | 0.00 | 47 | |
| 20260502230519 | 8 | 345 | 12.9 | 33.8 | 0.00 | 0.00 | 0.00 | 45 | |
| 20260502225958 | 8 | 305 | 14.5 | 25.7 | 0.00 | 0.00 | 0.00 | 44 | |
| 20260502225457 | 9 | 321 | 12.9 | 22.5 | 0.00 | 0.00 | 0.00 | 41 | |
| 20260502225016 | 10 | 313 | 12.9 | 24.1 | 0.00 | 0.00 | 0.00 | 41 | |
| 20260502224455 | 10 | 305 | 9.7 | 24.1 | 0.00 | 0.00 | 0.00 | 43 | |
| 20260502224015 | 8 | 5 | 12.9 | 24.1 | 0.00 | 0.00 | 0.00 | 44 | |
| 20260502223453 | 8 | 7 | 16.1 | 24.1 | 0.00 | 0.00 | 0.00 | 44 | |
| 20260502222952 | 8 | 353 | 14.5 | 29.0 | 0.00 | 0.00 | 0.00 | 44 | |
| 20260502222451 | 8 | 350 | 14.5 | 27.4 | 0.00 | 0.00 | 0.00 | 44 | |
| 20260502221950 | 8 | 312 | 6.4 | 20.9 | 0.00 | 0.00 | 0.00 | 44 | |
| 20260502221449 | 9 | 331 | 11.3 | 22.5 | 0.00 | 0.00 | 0.00 | 45 | |
| 20260502220948 | 9 | 330 | 14.5 | 37.0 | 0.00 | 0.00 | 0.00 | 43 | |
| 20260502220446 | 9 | 348 | 9.7 | 24.1 | 0.00 | 0.00 | 0.00 | 43 | |
| 20260502215946 | 9 | 329 | 11.3 | 25.7 | 0.00 | 0.00 | 0.00 | 42 | |
| 20260502215506 | 10 | 338 | 16.1 | 32.2 | 0.00 | 0.00 | 0.00 | 42 | |
| 20260502214944 | 9 | 342 | 17.7 | 30.6 | 0.00 | 0.00 | 0.00 | 42 | |
| 20260502214443 | 8 | 349 | 16.1 | 33.8 | 0.00 | 0.00 | 0.00 | 44 | |
| 20260502213941 | 8 | 348 | 20.9 | 35.4 | 0.00 | 0.00 | 0.00 | 45 | |
| 20260502213441 | 8 | 344 | 14.5 | 24.1 | 0.00 | 0.00 | 0.00 | 44 | |
| 20260502212940 | 8 | 325 | 11.3 | 24.1 | 0.00 | 0.00 | 0.00 | 44 | |
| 20260502212459 | 8 | 351 | 12.9 | 24.1 | 0.00 | 0.00 | 0.00 | 45 | |
| 20260502211938 | 8 | 354 | 20.9 | 35.4 | 0.00 | 0.00 | 0.00 | 45 | |
| 20260502211458 | 8 | 324 | 17.7 | 37.0 | 0.00 | 0.00 | 0.00 | 44 | |
| 20260502210935 | 8 | 317 | 16.1 | 38.6 | 0.00 | 0.00 | 0.00 | 44 | |
| 20260502210435 | 8 | 340 | 12.9 | 37.0 | 0.00 | 0.00 | 0.00 | 45 | |
| 20260502210025 | 8 | 343 | 16.1 | 27.4 | 0.00 | 0.00 | 0.00 | 46 | |
| 20260502205954 | 8 | 343 | 16.1 | 27.4 | 0.00 | 0.00 | 0.00 | 46 | |
| 20260502205433 | 8 | 356 | 19.3 | 35.4 | 0.00 | 0.00 | 0.00 | 46 | |
| 20260502204932 | 8 | 326 | 17.7 | 32.2 | 0.00 | 0.00 | 0.00 | 45 | |
| 20260502204430 | 8 | 327 | 9.7 | 22.5 | 0.00 | 0.00 | 0.00 | 45 | |
| 20260502203930 | 8 | 318 | 16.1 | 38.6 | 0.00 | 0.00 | 0.00 | 43 | |
| 20260502203429 | 9 | 335 | 9.7 | 24.1 | 0.00 | 0.00 | 0.00 | 44 | |
| 20260502202949 | 8 | 347 | 11.3 | 22.5 | 0.00 | 0.00 | 0.00 | 44 | |
| 20260502202427 | 8 | 339 | 16.1 | 32.2 | 0.00 | 0.00 | 0.00 | 44 | |
| 20260502201925 | 8 | 323 | 17.7 | 33.8 | 0.00 | 0.00 | 0.00 | 46 | |
| 20260502201425 | 8 | 336 | 12.9 | 37.0 | 0.00 | 0.00 | 0.00 | 47 | |
| 20260502200924 | 8 | 318 | 19.3 | 41.8 | 0.00 | 0.00 | 0.00 | 46 | |
| 20260502200423 | 8 | 350 | 17.7 | 32.2 | 0.00 | 0.00 | 0.00 | 45 | |
| 20260502195942 | 8 | 327 | 19.3 | 33.8 | 0.00 | 0.00 | 0.00 | 43 | |
| 20260502195421 | 8 | 312 | 12.9 | 27.4 | 0.00 | 0.00 | 0.00 | 45 | |
| 20260502194919 | 8 | 319 | 19.3 | 32.2 | 0.00 | 0.00 | 0.00 | 45 | |
| 20260502194418 | 8 | 328 | 17.7 | 37.0 | 0.00 | 0.00 | 0.00 | 46 | |
| 20260502193939 | 8 | 311 | 17.7 | 41.8 | 0.00 | 0.00 | 0.00 | 45 | |
| 20260502193416 | 8 | 312 | 11.3 | 24.1 | 0.00 | 0.00 | 0.00 | 46 | |
| 20260502192916 | 8 | 332 | 17.7 | 40.2 | 0.00 | 0.00 | 0.00 | 44 | |
| 20260502192435 | 8 | 343 | 17.7 | 35.4 | 0.00 | 0.00 | 0.00 | 46 | |
| 20260502191913 | 8 | 325 | 16.1 | 35.4 | 0.00 | 0.00 | 0.00 | 45 | |
| 20260502191412 | 8 | 329 | 14.5 | 30.6 | 0.00 | 0.00 | 0.00 | 45 | |
| 20260502190911 | 8 | 331 | 12.9 | 27.4 | 0.00 | 0.00 | 0.00 | 45 | |
| 20260502190410 | 8 | 296 | 8.0 | 20.9 | 0.00 | 0.00 | 0.00 | 45 | |
| 20260502185909 | 8 | 338 | 12.9 | 35.4 | 0.00 | 0.00 | 0.00 | 45 | |
| 20260502185408 | 8 | 316 | 16.1 | 35.4 | 0.00 | 0.00 | 0.00 | 44 | |
| 20260502184908 | 8 | 341 | 12.9 | 29.0 | 0.00 | 0.00 | 0.00 | 46 | |
| 20260502184406 | 8 | 352 | 17.7 | 32.2 | 0.00 | 0.00 | 0.00 | 46 | |
| 20260502183927 | 9 | 313 | 17.7 | 38.6 | 0.00 | 0.00 | 0.00 | 43 | |
| 20260502183425 | 8 | 0 | 11.3 | 24.1 | 0.00 | 0.00 | 0.00 | 43 | |
| 20260502182903 | 8 | 332 | 16.1 | 29.0 | 0.00 | 0.00 | 0.00 | 42 | |
| 20260502182423 | 8 | 329 | 16.1 | 30.6 | 0.00 | 0.00 | 0.00 | 43 | |
| 20260502181901 | 8 | 322 | 17.7 | 33.8 | 0.00 | 0.00 | 0.00 | 43 | |
| 20260502181400 | 8 | 328 | 11.3 | 25.7 | 0.00 | 0.00 | 0.00 | 43 | |
| 20260502180921 | 9 | 313 | 14.5 | 37.0 | 0.00 | 0.00 | 0.00 | 42 |